www.pogodaiklimat.ru

Погода и климат >> Архив погоды >> Италия >> Матера


ПОГОДА в Матере

  • Прогноз погоды в Матере
  • Монитор погоды в Матере

АРХИВ ПОГОДЫ в Матере

Время (UTC), дата Ветер
(напр.,м/с)
 
Видим.   Явления Облачность Т
(С)
Тd
(С)
f
(%)
Тe
(С)
Тes
(С)
Комфортность P
(гПа)
Po
(гПа)
Тmin
(С)
Tmax
(С)
R
(мм)
R24
(мм)
S
(см)
01 13.03 С 8 н/о н/о +3.0 -1.4 73 -3 -3 1020.7 960.1
02 13.03 С 8 н/о н/о +2.3 -1.7 75 -4 -4 1020.5 959.7
03 13.03 С 11 н/о н/о +2.7 -1.9 72 -5 -5 1020.2 959.6
04 13.03 С 8 н/о н/о +1.7 -2.5 74 -5 -5 1020.4 959.6
05 13.03 С 9 н/о н/о +1.6 -2.2 76 -5 -5 1020.5 959.6
06 13.03 С 9 н/о н/о +2.0 -0.6 83 -5 -5 1020.1 959.3 +1.4 219
07 13.03 С 11 н/о н/о +3.6 +0.4 80 -4 -4 1019.7 959.3
08 13.03 С 10 н/о н/о +5.9 +0.6 69 0 0 1019.3 959.4
09 13.03 СВ 7 н/о н/о +7.7 +0.1 59 +4 +4 1019.0 959.5
10 13.03 СВ 5 н/о н/о +8.6 -0.5 53 +6 +6 1018.9 959.6
11 13.03 СВ 5 н/о н/о +9.9 -0.1 50 +7 +7 1018.3 959.3
12 13.03 С 4 н/о н/о +10.7 +0.3 49 +9 +9 1017.2 958.4
13 13.03 СВ 5 н/о н/о +12.3 -2.8 35 +11 +11 1016.0 957.6
14 13.03 СВ 4 н/о н/о +13.1 -6.6 25 +12 +12 1015.5 957.2
15 13.03 штиль 0 н/о н/о +13.6 -6.2 25 +14 +14 1014.8 956.7
16 13.03 ЮЗ 5 н/о н/о +10.0 +1.5 55 +7 +7 1015.8 956.9
17 13.03 ЮЗ 4 н/о н/о +8.2 +1.3 62 +5 +5 1016.1 956.8
18 13.03 ЮЗ 4 н/о н/о +7.0 +1.0 66 +4 +4 1016.1 956.6 +13.8
19 13.03 ЮЗ 5 н/о н/о +6.3 +1.4 71 +2 +2 1016.2 956.5
20 13.03 ЮЗ 4 н/о н/о +5.7 +1.4 74 +2 +2 1016.1 956.3
21 13.03 С 2 н/о н/о +5.3 +1.0 74 +3 +3 1016.3 956.5
22 13.03 СВ 2 н/о н/о +6.8 +1.0 66 +5 +5 1015.7 956.2
23 13.03 ЮЗ 3 н/о н/о +7.0 +0.6 64 +5 +5 1014.8 955.3
00 14.03 З 4 н/о н/о +6.7 +1.1 67 +4 +4 1014.8 955.3
01 14.03 ЮЗ 4 н/о н/о +6.6 +1.5 70 +3 +3 1014.6 955.1
02 14.03 ЮЗ 4 н/о н/о +6.3 +3.8 84 +3 +3 1013.7 954.2
03 14.03 ЮЗ 3 н/о н/о +5.6 +3.7 88 +3 +3 1013.1 953.5
04 14.03 ЮЗ 4 н/о н/о +5.6 +4.9 95 +2 +2 1012.6 953.0
05 14.03 ЮЗ 4 н/о н/о +5.5 +5.4 99 +1 +1 1012.0 952.5
06 14.03 ЮЗ 3 н/о н/о +6.0 +6.0 100 +2 +2 1011.7 952.3 +5.1 2 108
07 14.03 штиль 0 н/о н/о +6.3 +6.3 100 +5 +5 1012.1 952.7
08 14.03 штиль 0 н/о н/о +6.3 +6.3 100 +5 +5 1012.2 952.8
09 14.03 С 2 н/о н/о +7.4 +7.4 100 +6 +6 1011.6 952.5
10 14.03 С 9 н/о н/о +7.3 +5.7 90 +2 +2 1011.7 952.5
11 14.03 СВ 11 н/о н/о +6.4 +5.8 96 0 0 1011.7 952.3
12 14.03 СВ 14 н/о н/о +5.8 +5.5 98 -2 -2 1011.6 952.2 3
13 14.03 СВ 17 н/о н/о +6.2 +6.1 99 -2 -2 1011.3 951.9
14 14.03 СВ 16 н/о н/о +6.3 +5.4 94 -1 -1 1011.6 952.3
15 14.03 СВ 15 н/о н/о +6.2 +5.4 95 -1 -1 1012.2 952.8
16 14.03 СВ 14 н/о н/о +6.8 +4.6 86 0 0 1012.3 953.0
17 14.03 СВ 13 н/о н/о +6.0 +5.2 95 -1 -1 1013.6 954.1
18 14.03 СВ 11 н/о н/о +5.5 +4.8 95 -1 -1 1014.5 954.8 +7.9 3
19 14.03 СВ 7 н/о н/о +4.7 +3.8 94 -1 -1 1014.7 954.8
20 14.03 С 4 н/о н/о +4.3 +3.6 95 0 0 1015.1 955.1
21 14.03 С 5 н/о н/о +4.1 +3.2 94 -1 -1 1015.6 955.5
22 14.03 С 7 н/о н/о +3.8 +2.9 94 -2 -2 1015.2 955.1
23 14.03 С 7 н/о н/о +4.3 +3.3 93 -2 -2 1015.2 955.2
00 15.03 С 5 н/о н/о +4.4 +1.7 83 -0 -0 1014.9 954.9
01 15.03 С 6 н/о н/о +5.7 -1.1 62 +1 +1 1013.9 954.3
02 15.03 С 8 н/о н/о +6.2 +1.1 70 +1 +1 1013.4 953.9
03 15.03 С 5 н/о н/о +5.7 +1.2 73 +1 +1 1012.9 953.4
04 15.03 СЗ 4 н/о н/о +5.8 +1.5 74 +2 +2 1013.1 953.5
05 15.03 С 6 н/о н/о +5.6 +0.9 72 +1 +1 1013.6 954.0
06 15.03 С 7 н/о н/о +6.1 +0.8 69 +1 +1 1013.6 954.1 +3.7 410
07 15.03 С 8 н/о н/о +7.7 +1.2 63 +3 +3 1013.8 954.6
08 15.03 С 5 н/о н/о +8.8 +0.9 58 +6 +6 1014.3 955.3
09 15.03 С 7 н/о н/о +10.6 +1.6 54 +7 +7 1014.8 956.1
10 15.03 С 8 н/о н/о +12.3 +1.5 48 +10 +10 1014.8 956.5
11 15.03 С 8 н/о н/о +13.6 +1.1 43 +11 +11 1014.7 956.6
12 15.03 СВ 5 н/о н/о +14.2 +1.4 42 +13 +13 1014.4 956.5
13 15.03 С 6 н/о н/о +14.7 +2.2 43 +13 +13 1014.2 956.4
14 15.03 С 5 н/о н/о +14.9 +1.7 41 +14 +14 1014.3 956.5
15 15.03 СВ 7 н/о н/о +15.1 +0.4 37 +14 +14 1014.3 956.5
16 15.03 СВ 5 н/о н/о +14.4 +0.9 40 +13 +13 1014.7 956.8
17 15.03 В 3 н/о н/о +11.4 +2.6 55 +10 +10 1016.2 957.6
18 15.03 В 3 н/о н/о +9.8 +3.0 63 +8 +8 1017.3 958.3 +15.3
19 15.03 Ю 3 н/о н/о +9.3 +3.2 66 +7 +7 1018.3 959.1
20 15.03 штиль 0 н/о н/о +9.7 +2.2 60 +9 +9 1018.8 959.7
21 15.03 ЮЗ 2 н/о н/о +9.1 +0.9 56 +8 +8 1018.9 959.7
22 15.03 штиль 0 н/о н/о +9.5 +1.8 59 +9 +9 1018.9 959.7
23 15.03 З 2 н/о н/о +7.4 +0.7 62 +6 +6 1019.2 959.6
00 16.03 штиль 0 н/о н/о +8.2 +2.2 66 +8 +8 1019.2 959.8
01 16.03 СЗ 3 н/о н/о +8.9 +2.8 66 +7 +7 1018.8 959.5
02 16.03 З 3 н/о н/о +6.9 +1.5 68 +4 +4 1018.9 959.2
03 16.03 СЗ 5 н/о н/о +6.2 +1.1 70 +2 +2 1019.1 959.2
04 16.03 СЗ 3 н/о н/о +8.0 +2.8 70 +5 +5 1018.9 959.5
05 16.03 С 4 н/о н/о +9.0 +2.5 64 +6 +6 1018.9 959.6
06 16.03 СЗ 6 н/о н/о +8.7 +3.1 68 +5 +5 1019.1 959.8 +5.9 210
07 16.03 З 3 н/о н/о +11.7 +4.6 62 +10 +10 1018.7 960.0
08 16.03 СЗ 5 н/о н/о +13.6 +3.3 50 +12 +12 1019.1 960.8
09 16.03 З 3 н/о н/о +15.3 +3.7 46 +15 +15 1019.4 961.4
10 16.03 З 4 н/о н/о +16.6 +3.2 41 +16 +16 1019.0 961.3
11 16.03 ЮЗ 3 н/о н/о +17.2 +4.8 44 +17 +17 1018.5 960.9
12 16.03 ЮЗ 4 н/о н/о +17.2 +6.9 51 +17 +17 1018.2 960.6
13 16.03 Ю 4 н/о н/о +17.2 +7.5 53 +17 +17 1018.1 960.5
14 16.03 штиль 0 н/о н/о +18.1 +7.1 49 +18 +18 1017.7 960.3
15 16.03 ЮЗ 6 н/о н/о +16.2 +7.9 58 +15 +15 1018.1 960.3
16 16.03 ЮЗ 5 н/о н/о +14.1 +7.6 65 +12 +12 1018.6 960.4
17 16.03 ЮЗ 3 н/о н/о +11.8 +7.9 77 +10 +10 1019.5 960.7
18 16.03 ЮЗ 4 н/о н/о +10.9 +6.2 73 +9 +9 1020.0 961.1 +18.5
19 16.03 ЮЗ 4 н/о н/о +10.2 +7.4 83 +8 +8 1020.7 961.5
20 16.03 Ю 4 н/о н/о +10.0 +10.0 100 +7 +7 1020.9 961.7
21 16.03 штиль 0 н/о н/о +9.6 +9.6 100 +9 +9 1021.0 961.7
22 16.03 ЮЗ 3 н/о н/о +9.4 +9.4 100 +7 +7 1021.0 961.7
23 16.03 штиль 0 н/о н/о +9.1 +9.1 100 +8 +8 1020.8 961.5
00 17.03 Ю 2 н/о н/о +9.3 +9.3 100 +7 +7 1020.6 961.3 0.2
01 17.03 З 3 н/о н/о +8.8 +8.8 100 +6 +6 1020.3 960.9
02 17.03 ЮЗ 3 н/о н/о +8.6 +8.6 100 +6 +6 1019.8 960.4
03 17.03 ЮЗ 3 н/о н/о +8.4 +8.4 100 +5 +5 1019.6 960.2
04 17.03 Ю 3 н/о н/о +8.4 +8.4 100 +6 +6 1020.0 960.6
05 17.03 штиль 0 н/о н/о +8.6 +8.6 100 +8 +8 1020.3 960.9
06 17.03 Ю 3 н/о н/о +8.4 +8.4 100 +5 +5 1020.7 961.2 +8.2 0.4 1
07 17.03 ЮЗ 4 н/о н/о +9.0 +9.0 100 +6 +6 1020.7 961.4
08 17.03 ЮЗ 4 н/о н/о +9.8 +9.8 100 +7 +7 1020.8 961.6
09 17.03 Ю 7 н/о н/о +11.1 +11.1 100 +8 +8 1020.2 961.3
10 17.03 ЮЗ 7 н/о н/о +13.7 +13.6 99 +11 +11 1019.6 961.2
11 17.03 ЮЗ 7 н/о н/о +14.6 +11.7 83 +12 +12 1019.2 961.1
12 17.03 ЮЗ 6 н/о н/о +15.1 +11.6 80 +14 +14 1018.5 960.5
13 17.03 Ю 9 н/о н/о +13.4 +11.4 88 +10 +10 1018.1 959.8
14 17.03 ЮЗ 8 н/о н/о +12.8 +11.0 89 +10 +10 1018.0 959.5
15 17.03 Ю 9 н/о н/о +12.5 +11.1 91 +9 +9 1017.7 959.1
16 17.03 Ю 8 н/о н/о +11.1 +10.3 95 +7 +7 1017.9 959.1
17 17.03 Ю 7 н/о н/о +10.6 +10.4 99 +7 +7 1017.9 959.0
18 17.03 Ю 9 н/о н/о +10.8 +10.8 100 +7 +7 1017.8 959.0 +15.7
19 17.03 ЮЗ 9 н/о н/о +10.7 +10.7 100 +7 +7 1017.8 959.0
20 17.03 ЮЗ 7 н/о н/о +10.6 +10.6 100 +7 +7 1017.7 958.8
21 17.03 ЮЗ 7 н/о н/о +10.3 +10.3 100 +7 +7 1017.7 958.8
22 17.03 Ю 6 н/о н/о +10.2 +10.2 100 +7 +7 1017.4 958.5
23 17.03 Ю 7 н/о н/о +10.0 +10.0 100 +6 +6 1016.9 958.0
00 18.03 ЮЗ 5 н/о н/о +9.9 +9.9 100 +6 +6 1016.7 957.8 0.2
01 18.03 ЮЗ 7 н/о н/о +9.8 +9.8 100 +6 +6 1016.3 957.4
02 18.03 Ю 6 н/о н/о +9.5 +9.5 100 +6 +6 1016.0 957.0
03 18.03 ЮЗ 7 н/о н/о +9.5 +9.5 100 +5 +5 1015.9 956.9
04 18.03 ЮЗ 9 н/о н/о +9.2 +9.2 100 +4 +4 1015.7 956.7
05 18.03 ЮЗ 6 н/о н/о +8.9 +8.9 100 +5 +5 1015.9 956.8
06 18.03 ЮЗ 4 н/о н/о +8.9 +8.9 100 +6 +6 1016.3 957.2 +8.7 0.2 309
07 18.03 ЮЗ 6 н/о н/о +8.9 +8.9 100 +5 +5 1016.3 957.2
08 18.03 ЮЗ 6 н/о н/о +10.7 +10.7 100 +7 +7 1016.1 957.4
09 18.03 ЮЗ 5 н/о н/о +12.3 +8.9 80 +10 +10 1016.1 957.7
10 18.03 штиль 0 н/о н/о +13.7 +7.6 67 +13 +13 1015.7 957.7
11 18.03 ЮЗ 1 н/о н/о +15.2 +7.4 60 +17 +17 1015.7 957.8
12 18.03 Ю 4 н/о н/о +15.6 +9.2 66 +15 +15 1015.2 957.5
13 18.03 Ю 8 н/о н/о +14.9 +10.1 73 +13 +13 1014.9 957.1
14 18.03 ЮЗ 8 н/о н/о +14.4 +10.0 75 +12 +12 1014.7 956.8
15 18.03 Ю 7 н/о н/о +13.6 +10.2 80 +11 +11 1014.8 956.7
16 18.03 ЮЗ 8 н/о н/о +12.5 +10.2 86 +9 +9 1015.2 956.8
17 18.03 ЮЗ 9 н/о н/о +11.2 +10.6 96 +7 +7 1015.9 957.3
18 18.03 ЮЗ 8 н/о н/о +10.7 +10.7 100 +7 +7 1016.8 958.0 +16.3
19 18.03 ЮЗ 6 н/о н/о +10.9 +10.9 100 +7 +7 1017.2 958.4
20 18.03 ЮЗ 7 н/о н/о +10.9 +10.9 100 +7 +7 1017.5 958.7
21 18.03 Ю 7 н/о н/о +10.7 +10.7 100 +7 +7 1017.6 958.8
22 18.03 Ю 5 н/о н/о +10.6 +10.6 100 +7 +7 1017.7 958.8
23 18.03 Ю 7 н/о н/о +10.5 +10.5 100 +7 +7 1017.5 958.6
00 19.03 ЮЗ 5 н/о н/о +10.3 +10.3 100 +7 +7 1018.1 959.2
01 19.03 Ю 1 н/о н/о +10.3 +10.3 100 +10 +10 1017.9 959.0
02 19.03 штиль 0 н/о н/о +10.0 +10.0 100 +9 +9 1017.5 958.5
03 19.03 штиль 0 н/о н/о +10.1 +10.1 100 +9 +9 1017.6 958.6
04 19.03 штиль 0 н/о н/о +10.3 +10.3 100 +9 +9 1017.7 958.8
05 19.03 штиль 0 н/о н/о +10.3 +10.3 100 +9 +9 1018.1 959.2
06 19.03 штиль 0 н/о н/о +10.3 +10.3 100 +9 +9 1018.1 959.2 +9.8 0
07 19.03 штиль 0 н/о н/о +10.6 +10.6 100 +10 +10 1018.6 959.7
08 19.03 ЮВ 2 н/о н/о +11.7 +11.7 100 +10 +10 1018.3 959.7
09 19.03 Ю 4 н/о н/о +12.3 +11.4 94 +10 +10 1018.7 960.1
10 19.03 штиль 0 н/о н/о +12.5 +10.4 87 +12 +12 1018.8 960.3
11 19.03 штиль 0 н/о н/о +12.3 +10.9 91 +12 +12 1019.0 960.4
12 19.03 В 4 н/о н/о +12.8 +10.8 88 +11 +11 1018.7 960.2
13 19.03 В 3 н/о н/о +12.3 +10.9 91 +11 +11 1018.6 960.0
14 19.03 В 8 н/о н/о +11.2 +10.4 95 +8 +8 1018.8 960.0
15 19.03 В 6 н/о н/о +10.5 +10.5 100 +7 +7 1019.1 960.1
16 19.03 В 5 н/о н/о +10.0 +10.0 100 +7 +7 1019.4 960.3
17 19.03 В 5 н/о н/о +9.8 +9.8 100 +7 +7 1020.2 961.0
18 19.03 СВ 4 н/о н/о +9.6 +9.6 100 +6 +6 1021.2 961.9 +14.1
19 19.03 СВ 5 н/о н/о +9.3 +9.3 100 +6 +6 1021.9 962.5
20 19.03 В 7 н/о н/о +9.1 +9.1 100 +5 +5 1022.5 963.1
21 19.03 СВ 7 н/о н/о +8.5 +8.5 100 +4 +4 1022.9 963.3
22 19.03 СВ 7 н/о н/о +8.2 +8.2 100 +4 +4 1023.3 963.6
23 19.03 СВ 6 н/о н/о +7.7 +7.1 96 +3 +3 1023.4 963.6
00 20.03 СВ 6 н/о н/о +7.7 +7.1 96 +3 +3 1023.6 963.8
01 20.03 СВ 7 н/о н/о +7.8 +7.7 99 +3 +3 1023.5 963.7
02 20.03 СВ 7 н/о н/о +7.6 +7.6 100 +3 +3 1023.7 963.9

 

Местоположение метеостанции Матера (Италия): широта 40.67 долгота 16.66 высота над уровнем моря 498 м.

В архиве по умолчанию представлена погода в Матере за последнюю неделю. Архивные данные за месяц целиком и за предыдущие месяцы, начиная с января 2011 года, Вы можете получить, выбрав интересующий диапазон дат из раскрывающегося списка и нажав кнопку "Ввод!".


*Определитесь, кто Вы:
робот инопланетянин человек

Внимание! Время в таблицах - всемирное. Для получения местного времени необходимо прибавить поправку, которая равна 1 ч.

Смотрите также архив погоды в соседних городах и на ближайших метеорологических станциях:

Погода в Джоя-дель-Колле (Италия) (25 км)
Погода в Джинозе (Италия) (33 км)
Погода в Мартина-Франка (Италия) (47 км)
Погода в Бари аэропорту (Италия) (52 км)
Погода в Бари (Италия) (53 км)
Погода в Латронико (Италия) (85 км)
Погода в Бриндиси (Италия) (109 км)
Погода в Амендоле (Италия) (124 км)
Погода в Тревико (Италия) (128 км)
Погода в Монте-Сант-Анджело (Италия) (129 км)

Пояснения к столбцам:

Ветер - указаны скорость ветра в м/с - средняя за 10 мин, порывы в срок и между сроками (в фигурных скобках) и направление, откуда дует ветер: С - северный, СВ - северо-восточный, В - восточный, ЮВ - юго-восточный, Ю - южный, ЮЗ - юго-западный, З - западный, СЗ - северо-западный.
Видимость - горизонтальная дальность видимости в метрах или километрах. При видимости от 1 до 10 км при отсутствии осадков обычно наблюдается дымка, при ухудшении видимости до 1 км и менее - туман. В сухую погоду видимость может ухудшаться дымом, пылью или мглою.
Явления - указаны атмосферные явления, наблюдавшиеся в срок или в последний час перед сроком; фигурными скобками обозначены явления, наблюдавшиеся между сроками (за 1-3 часа до срока); квадратными скобками обозначены град или гололедные отложения с указанием их диаметра в мм.
Облачность - указаны через наклонную черту общая и нижняя облачность в баллах и высота нижней границы облаков в метрах; квадратными скобками обозначены формы облаков: Ci - перистые, Cs - перисто-слоистые, Cc - перисто-кучевые, Ac - высококучевые, As - высокослоистые, Sc - слоисто-кучевые, Ns - слоисто-дождевые, Cu - кучевые, Cb - кучево-дождевые. Подробнее классификацию облаков см. в Атласе облаков (PDF).
T - Температура воздуха - температура, измеренная на высоте 2 м над землей.
Td - Температура точки росы - температура, при понижении до которой содержащийся в воздухе водяной пар достигнет насыщения.
f - Относительная влажность воздуха - влажноcть воздуха, измеренная на высоте 2 м над землей.
Te - Эффективная температура - температура, которую ощущает одетый по сезону человек в тени. Характеристика душности погоды. При расчете учитывается влияние влажности воздуха и скорости ветра на теплоощущения человека.
Tes - Эффективная температура на солнце - температура, которую ощущает человек, с поправкой на солнечный нагрев. Характеристика знойности погоды. Зависит от высоты солнца над горизонтом, облачности и скорости ветра. Ночью, в пасмурную погоду, а также при ветре 12 м/с и более поправка равна нулю.
P - Атмосферное давление - приведенное к уровню моря атмосферное давление.
Po - Атмосферное давление - измеренное на уровне метеостанции атмосферное давление.
Tmin - Минимальная температура - минимум температуры воздуха на высоте 2 м над землей.
Tmax - Максимальная температура - максимум температуры воздуха на высоте 2 м над землей.
R - Количество осадков - Количество выпавших осадков за период времени, мм. При наведении курсора мыши на число - период времени, за который выпало указанное количество осадков.
R24 - Количество осадков - Количество выпавших осадков за 24 часа, мм.
S - Снежный покров - Высота снежного покрова, см. При наведении курсора мыши на число - состояние снежного покрова и степень покрытия местности в баллах.